"startDT [UTC]","vpos","CH4 [ppm]","stdev(CH4) [ppm]","CO2 [ppm]","stdev(CO2) [ppm]","H2O [ppm]","stdev(H2O)","p_LGR [torr]","T_LGR [C]","mt1_LGR [us]","mt2_LGR [us]","T_ECpre [C]","T_EC1 [C]","T_EC2 [C]","p_inlet [hPa]","p_in [hPa]","p_out [hPa]","T_inlet [C]","RH_inlet [%]","dwpt_inlet [C]","T_vent [C]","RH_vent [%]","dwpt_vent [C]","flow_vent [l min-1]","flow_inlet [l min-1]","dwpt_sample [C]","T_room [C]"
2012-11-16 00:00:00,0.0,1.9036,0.0009,399.63,0.22,105.9,29.8,138.05,31.04,24.65,36.42,0.04,-272.75,-272.75,-47,564,-930,25.4,2.1,-26.6,25.4,2.2,-26.3,5.73,2.30,-26.2,30.2
2012-11-16 00:01:00,0.0,1.9035,0.0011,399.75,0.22,110.7,28.8,138.05,31.04,24.66,36.41,0.04,-272.75,-272.75,-47,564,-930,25.4,2.1,-26.6,25.4,2.2,-26.4,5.73,2.35,-26.2,30.3
2012-11-16 00:02:00,0.0,1.9039,0.0011,399.59,0.22,107.0,27.5,138.05,31.04,24.65,36.43,0.04,-272.75,-272.75,-47,564,-930,25.4,2.1,-26.7,25.4,2.2,-26.4,5.73,2.41,-26.2,30.2
2012-11-16 00:03:00,0.0,1.9041,0.0010,399.69,0.21,106.4,29.0,138.05,31.04,24.66,36.42,0.04,-272.75,-272.75,-47,564,-929,25.4,2.1,-26.6,25.4,2.2,-26.4,5.73,2.31,-26.2,30.3
2012-11-16 00:04:00,0.0,1.9047,0.0008,399.72,0.22,99.4,22.6,138.05,31.04,24.65,36.42,0.04,-272.75,-272.75,-47,564,-929,25.4,2.2,-26.5,25.4,2.2,-26.3,5.73,2.33,-26.2,30.2
2012-11-16 00:05:00,0.0,1.9048,0.0008,399.59,0.16,99.3,28.7,138.05,31.03,24.65,36.42,0.04,-272.75,-272.75,-47,564,-930,25.4,2.1,-26.6,25.4,2.2,-26.3,5.73,2.41,-26.3,30.2
2012-11-16 00:06:00,0.0,1.9039,0.0009,399.60,0.16,98.6,33.9,138.05,31.03,24.66,36.43,0.04,-272.75,-272.75,-47,564,-930,25.4,2.2,-26.5,25.4,2.2,-26.3,5.73,2.34,-26.2,30.2
2012-11-16 00:07:00,0.0,1.9043,0.0008,399.65,0.22,108.6,30.9,138.05,31.03,24.66,36.42,0.04,-272.75,-272.75,-47,564,-930,25.4,2.2,-26.5,25.4,2.2,-26.3,5.73,2.30,-26.2,30.2
2012-11-16 00:08:00,0.0,1.9041,0.0009,399.65,0.20,103.6,25.5,138.05,31.02,24.66,36.42,0.04,-272.75,-272.75,-47,564,-930,25.4,2.2,-26.5,25.4,2.2,-26.3,5.73,2.40,-26.2,30.2
2012-11-16 00:09:00,0.0,1.9048,0.0008,399.64,0.20,101.8,29.8,138.05,31.02,24.65,36.42,0.04,-272.75,-272.75,-47,564,-929,25.4,2.2,-26.6,25.4,2.2,-26.3,5.73,2.36,-26.2,30.2
2012-11-16 00:10:00,0.0,1.9045,0.0011,399.71,0.22,109.7,31.3,138.05,31.02,24.65,36.42,0.04,-272.75,-272.75,-47,564,-929,25.4,2.2,-26.5,25.3,2.2,-26.3,5.73,2.29,-26.2,30.2
2012-11-16 00:11:00,0.0,1.9045,0.0010,399.66,0.21,104.0,33.8,138.05,31.02,24.66,36.42,0.04,-272.75,-272.75,-47,564,-930,25.4,2.2,-26.5,25.3,2.2,-26.3,5.73,2.39,-26.2,30.2
2012-11-16 00:12:00,0.0,1.9040,0.0009,399.66,0.23,99.8,28.1,138.06,31.01,24.66,36.42,0.04,-272.75,-272.75,-47,564,-930,25.4,2.2,-26.6,25.4,2.2,-26.3,5.73,2.38,-26.2,30.2
2012-11-16 00:13:00,0.0,1.9041,0.0009,399.72,0.22,109.7,24.1,138.05,31.01,24.65,36.42,0.04,-272.75,-272.75,-47,564,-930,25.4,2.2,-26.5,25.3,2.2,-26.3,5.73,2.29,-26.2,30.2
2012-11-16 00:14:00,0.0,1.9046,0.0009,399.66,0.22,97.6,26.6,138.06,31.01,24.65,36.42,0.04,-272.75,-272.75,-47,564,-929,25.4,2.2,-26.6,25.3,2.2,-26.3,5.73,2.38,-26.2,30.2
2012-11-16 00:15:00,0.0,1.9042,0.0010,399.56,0.19,108.4,28.5,138.05,31.00,24.65,36.43,0.04,-272.75,-272.75,-47,564,-929,25.4,2.2,-26.6,25.3,2.2,-26.3,5.73,2.39,-26.2,30.2
2012-11-16 00:16:00,0.0,1.9041,0.0009,399.62,0.18,101.3,24.5,138.05,31.00,24.65,36.42,0.04,-272.75,-272.75,-47,564,-929,25.4,2.2,-26.6,25.3,2.2,-26.3,5.73,2.29,-26.2,30.2
2012-11-16 00:17:00,0.0,1.9043,0.0008,399.66,0.19,105.5,27.6,138.05,31.00,24.65,36.42,0.04,-272.75,-272.75,-47,564,-930,25.4,2.2,-26.5,25.4,2.2,-26.3,5.73,2.36,-26.2,30.2
2012-11-16 00:18:00,0.0,1.9039,0.0010,399.56,0.24,101.3,30.2,138.05,31.00,24.65,36.42,0.04,-272.75,-272.75,-47,564,-930,25.4,2.2,-26.5,25.3,2.2,-26.3,5.73,2.40,-26.2,30.2
2012-11-16 00:19:00,0.0,1.9039,0.0008,399.63,0.17,104.0,31.3,138.05,31.00,24.65,36.42,0.04,-272.75,-272.75,-47,564,-929,25.4,2.2,-26.5,25.3,2.2,-26.3,5.73,2.30,-26.2,30.2
2012-11-16 00:20:00,0.0,1.9038,0.0009,399.70,0.24,110.6,32.8,138.05,30.99,24.65,36.42,0.04,-272.75,-272.75,-47,564,-929,25.4,2.2,-26.5,25.3,2.2,-26.3,5.73,2.34,-26.2,30.2
2012-11-16 00:21:00,0.0,1.9035,0.0008,399.65,0.22,103.5,27.6,138.05,30.99,24.66,36.42,0.04,-272.75,-272.75,-47,564,-929,25.4,2.2,-26.5,25.3,2.2,-26.3,5.73,2.41,-26.2,30.2
2012-11-16 00:22:00,0.0,1.9039,0.0009,399.61,0.16,97.7,29.4,138.05,30.99,24.65,36.42,0.04,-272.75,-272.75,-47,564,-930,25.4,2.2,-26.6,25.3,2.2,-26.3,5.73,2.31,-26.2,30.2
2012-11-16 00:23:00,0.0,1.9035,0.0008,399.70,0.19,108.1,32.2,138.05,30.99,24.66,36.42,0.04,-272.75,-272.75,-47,564,-930,25.4,2.2,-26.5,25.3,2.2,-26.3,5.73,2.32,-26.2,30.2
2012-11-16 00:24:00,0.0,1.9039,0.0008,399.71,0.23,96.0,27.3,138.05,30.98,24.65,36.42,0.04,-272.75,-272.76,-47,564,-929,25.3,2.2,-26.6,25.3,2.2,-26.3,5.73,2.42,-26.2,30.2
2012-11-16 00:25:00,0.0,1.9032,0.0010,399.71,0.20,98.0,24.7,138.05,30.98,24.66,36.42,0.04,-272.75,-272.75,-47,564,-929,25.4,2.2,-26.5,25.3,2.2,-26.3,5.73,2.32,-26.2,30.2
2012-11-16 00:26:00,0.0,1.9034,0.0009,399.73,0.19,96.4,31.3,138.05,30.98,24.65,36.41,0.04,-272.75,-272.75,-47,564,-929,25.4,2.2,-26.6,25.3,2.2,-26.3,5.73,2.31,-26.3,30.2
2012-11-16 00:27:00,0.0,1.9038,0.0008,399.65,0.17,100.0,28.2,138.05,30.97,24.65,36.42,0.04,-272.75,-272.75,-47,564,-930,25.4,2.2,-26.6,25.3,2.2,-26.3,5.73,2.41,-26.3,30.2
2012-11-16 00:28:00,0.0,1.9038,0.0008,399.73,0.18,92.0,29.0,138.06,30.97,24.65,36.42,0.04,-272.75,-272.75,-47,564,-929,25.3,2.2,-26.6,25.3,2.2,-26.3,5.73,2.33,-26.3,30.2
2012-11-16 00:29:00,0.0,1.9040,0.0010,399.63,0.19,95.6,27.8,138.06,30.97,24.65,36.43,0.04,-272.75,-272.75,-47,564,-929,25.3,2.1,-26.6,25.3,2.2,-26.3,5.73,2.30,-26.3,30.2
2012-11-16 00:30:00,0.0,1.9037,0.0009,399.62,0.22,101.8,27.7,138.05,30.97,24.66,36.42,0.04,-272.75,-272.75,-47,564,-929,25.3,2.2,-26.6,25.3,2.2,-26.3,5.73,2.41,-26.3,30.2
2012-11-16 00:31:00,0.0,1.9042,0.0010,399.63,0.17,99.8,31.1,138.06,30.96,24.65,36.42,0.04,-272.75,-272.75,-47,564,-930,25.3,2.2,-26.6,25.3,2.2,-26.3,5.73,2.35,-26.3,30.2
2012-11-16 00:32:00,0.0,1.9041,0.0009,399.67,0.20,99.0,35.1,138.06,30.96,24.65,36.42,0.04,-272.75,-272.75,-47,564,-930,25.3,2.2,-26.6,25.3,2.2,-26.3,5.73,2.29,-26.3,30.2
2012-11-16 00:33:00,0.0,1.9043,0.0010,399.71,0.23,100.4,28.8,138.05,30.96,24.65,36.42,0.04,-272.75,-272.75,-47,564,-929,25.3,2.2,-26.6,25.3,2.2,-26.3,5.73,2.40,-26.3,30.2
2012-11-16 00:34:00,0.0,1.9036,0.0008,399.56,0.22,98.0,26.2,138.05,30.95,24.66,36.43,0.04,-272.75,-272.75,-47,564,-929,25.3,2.1,-26.6,25.3,2.2,-26.3,5.73,2.37,-26.3,30.2
2012-11-16 00:35:00,0.0,1.9036,0.0010,399.59,0.22,100.5,33.2,138.06,30.95,24.66,36.43,0.04,-272.75,-272.75,-47,564,-929,25.3,2.1,-26.7,25.3,2.2,-26.3,5.73,2.28,-26.3,30.2
2012-11-16 00:36:00,0.0,1.9037,0.0008,399.71,0.19,99.7,31.1,138.06,30.95,24.65,36.42,0.04,-272.75,-272.75,-47,564,-930,25.3,2.2,-26.6,25.3,2.2,-26.3,5.73,2.39,-26.3,30.1
2012-11-16 00:37:00,0.0,1.9037,0.0011,399.78,0.17,92.3,33.3,138.06,30.95,24.65,36.42,0.04,-272.75,-272.75,-47,564,-929,25.3,2.2,-26.6,25.3,2.2,-26.3,5.73,2.38,-26.3,30.2
2012-11-16 00:38:00,0.0,1.9038,0.0008,399.72,0.20,99.5,30.3,138.06,30.95,24.65,36.42,0.04,-272.75,-272.75,-47,564,-929,25.3,2.2,-26.6,25.3,2.2,-26.3,5.73,2.28,-26.3,30.2
2012-11-16 00:39:00,0.0,1.9037,0.0009,399.69,0.19,97.0,25.2,138.06,30.94,24.66,36.42,0.04,-272.75,-272.75,-47,564,-929,25.3,2.2,-26.6,25.3,2.2,-26.4,5.73,2.37,-26.3,30.2
2012-11-16 00:40:00,0.0,1.9044,0.0009,399.69,0.22,102.1,31.2,138.05,30.94,24.65,36.42,0.04,-272.75,-272.75,-47,564,-929,25.3,2.1,-26.8,25.3,2.2,-26.4,5.73,2.39,-26.3,30.1
2012-11-16 00:41:00,0.0,1.9040,0.0010,399.78,0.25,99.0,29.9,138.05,30.94,24.65,36.42,0.04,-272.75,-272.75,-47,564,-929,25.3,2.1,-26.7,25.3,2.2,-26.4,5.73,2.28,-26.3,30.1
2012-11-16 00:42:00,0.0,1.9041,0.0010,399.73,0.19,102.0,26.9,138.05,30.94,24.65,36.42,0.04,-272.75,-272.75,-47,564,-929,25.3,2.1,-26.7,25.3,2.2,-26.5,5.73,2.37,-26.3,30.1
2012-11-16 00:43:00,0.0,1.9045,0.0009,399.79,0.23,93.8,31.3,138.05,30.93,24.65,36.41,0.04,-272.75,-272.75,-47,564,-929,25.3,2.1,-26.7,25.3,2.2,-26.4,5.73,2.40,-26.3,30.2
2012-11-16 00:44:00,0.0,1.9043,0.0010,399.88,0.19,91.2,30.8,138.05,30.93,24.65,36.41,0.04,-272.75,-272.75,-47,564,-930,25.3,2.1,-26.7,25.3,2.2,-26.5,5.73,2.28,-26.3,30.2
2012-11-16 00:45:00,0.0,1.9044,0.0009,399.80,0.21,95.2,21.6,138.05,30.93,24.65,36.42,0.04,-272.75,-272.75,-47,564,-929,25.3,2.1,-26.7,25.3,2.2,-26.5,5.73,2.35,-26.3,30.1
2012-11-16 00:46:00,0.0,1.9049,0.0008,399.90,0.24,95.0,26.2,138.05,30.93,24.65,36.41,0.04,-272.75,-272.75,-47,564,-929,25.3,2.1,-26.8,25.3,2.2,-26.5,5.73,2.41,-26.3,30.1
2012-11-16 00:47:00,0.0,1.9050,0.0010,399.75,0.21,97.4,20.9,138.05,30.93,24.65,36.42,0.04,-272.74,-272.75,-47,564,-929,25.3,2.1,-26.7,25.3,2.2,-26.5,5.73,2.30,-26.3,30.2
2012-11-16 00:48:00,0.0,1.9050,0.0008,399.62,0.16,99.9,25.4,138.06,30.92,24.65,36.42,0.04,-272.75,-272.75,-47,564,-929,25.3,2.2,-26.6,25.3,2.2,-26.3,5.73,2.34,-26.3,30.2
2012-11-16 00:49:00,0.0,1.9049,0.0010,399.80,0.16,98.9,32.5,138.06,30.92,24.65,36.41,0.04,-272.75,-272.75,-47,564,-929,25.3,2.2,-26.6,25.3,2.2,-26.4,5.73,2.41,-26.3,30.2
2012-11-16 00:50:00,0.0,1.9051,0.0008,399.62,0.16,100.0,26.7,138.06,30.92,24.65,36.43,0.04,-272.74,-272.75,-47,564,-929,25.3,2.2,-26.6,25.3,2.2,-26.3,5.73,2.31,-26.3,30.1
2012-11-16 00:51:00,0.0,1.9052,0.0009,399.58,0.19,96.2,28.6,138.06,30.92,24.65,36.43,0.04,-272.75,-272.75,-47,564,-929,25.3,2.2,-26.6,25.3,2.2,-26.3,5.73,2.33,-26.4,30.1
2012-11-16 00:52:00,0.0,1.9053,0.0010,399.61,0.19,98.0,33.5,138.06,30.91,24.65,36.42,0.04,-272.75,-272.75,-47,564,-929,25.3,2.2,-26.6,25.3,2.2,-26.3,5.73,2.41,-26.4,30.1
2012-11-16 00:53:00,0.0,1.9049,0.0010,399.57,0.20,101.1,29.5,138.06,30.91,24.65,36.43,0.04,-272.75,-272.75,-47,564,-929,25.3,2.2,-26.5,25.3,2.2,-26.2,5.73,2.32,-26.4,30.1
2012-11-16 00:54:00,0.0,1.9051,0.0009,399.66,0.16,95.2,31.3,138.06,30.91,24.65,36.42,0.04,-272.75,-272.75,-46,564,-929,25.3,2.2,-26.4,25.3,2.2,-26.2,5.73,2.31,-26.4,30.1
2012-11-16 00:55:00,0.0,1.9051,0.0009,399.72,0.17,91.3,28.6,138.06,30.91,24.66,36.42,0.04,-272.75,-272.75,-47,564,-929,25.3,2.2,-26.4,25.3,2.3,-26.1,5.73,2.41,-26.4,30.1
2012-11-16 00:56:00,0.0,1.9061,0.0009,399.80,0.23,95.9,24.6,138.06,30.90,24.65,36.42,0.04,-272.75,-272.75,-47,564,-929,25.3,2.2,-26.4,25.3,2.3,-26.1,5.73,2.34,-26.4,30.1
2012-11-16 00:57:00,0.0,1.9060,0.0009,399.90,0.21,92.7,28.1,138.06,30.90,24.66,36.41,0.04,-272.75,-272.75,-47,564,-929,25.3,2.2,-26.4,25.3,2.3,-26.1,5.73,2.30,-26.4,30.1
2012-11-16 00:58:00,0.0,1.9059,0.0008,399.84,0.20,103.3,30.9,138.06,30.90,24.65,36.42,0.04,-272.75,-272.75,-47,564,-928,25.3,2.2,-26.4,25.3,2.3,-26.1,5.73,2.41,-26.4,30.1
2012-11-16 00:59:00,0.0,1.9062,0.0008,399.79,0.20,98.7,30.2,138.06,30.89,24.65,36.42,0.04,-272.75,-272.75,-47,564,-929,25.3,2.2,-26.3,25.3,2.3,-26.0,5.73,2.36,-26.4,30.1
2012-11-16 01:00:00,0.0,1.9060,0.0009,399.77,0.18,94.3,29.8,138.06,30.89,24.65,36.42,0.04,-272.75,-272.75,-47,564,-929,25.3,2.2,-26.3,25.2,2.3,-26.1,5.73,2.29,-26.4,30.1
2012-11-16 01:01:00,0.0,1.9054,0.0009,399.74,0.19,99.5,26.9,138.06,30.89,24.65,36.42,0.04,-272.75,-272.75,-47,564,-929,25.3,2.2,-26.3,25.2,2.3,-26.0,5.73,2.38,-26.4,30.1
2012-11-16 01:02:00,0.0,1.9056,0.0010,399.81,0.19,92.9,28.8,138.06,30.88,24.65,36.42,0.04,-272.75,-272.75,-47,564,-929,25.2,2.2,-26.4,25.3,2.3,-25.9,5.73,2.39,-26.4,30.1
2012-11-16 01:03:00,0.0,1.9056,0.0010,399.77,0.19,94.8,33.3,138.06,30.88,24.66,36.42,0.04,-272.75,-272.75,-47,564,-929,25.3,2.2,-26.3,25.2,2.3,-25.9,5.73,2.29,-26.4,30.1
2012-11-16 01:04:00,0.0,1.9053,0.0008,399.74,0.20,90.2,24.8,138.06,30.88,24.66,36.42,0.04,-272.75,-272.75,-47,564,-929,25.3,2.2,-26.3,25.2,2.3,-26.0,5.73,2.34,-26.4,30.1
2012-11-16 01:05:00,0.0,1.9061,0.0008,399.86,0.22,89.7,29.9,138.06,30.88,24.65,36.41,0.04,-272.75,-272.75,-47,564,-929,25.3,2.2,-26.3,25.2,2.3,-26.0,5.73,2.40,-26.4,30.1
2012-11-16 01:06:00,0.0,1.9065,0.0009,399.95,0.21,94.0,27.4,138.06,30.87,24.65,36.42,0.04,-272.75,-272.75,-47,564,-929,25.3,2.2,-26.3,25.2,2.3,-26.1,5.73,2.31,-26.4,30.1
2012-11-16 01:07:00,0.0,1.9064,0.0011,400.02,0.24,94.2,28.8,138.06,30.87,24.65,36.42,0.04,-272.75,-272.75,-47,564,-929,25.3,2.2,-26.3,25.2,2.3,-26.1,5.73,2.31,-26.3,30.1
2012-11-16 01:08:00,0.0,1.9068,0.0010,399.95,0.20,97.2,29.7,138.06,30.87,24.65,36.42,0.04,-272.75,-272.75,-47,563,-929,25.2,2.2,-26.4,25.2,2.3,-26.1,5.73,2.41,-26.0,30.1
2012-11-16 01:09:00,0.0,1.9063,0.0008,399.91,0.19,97.6,30.7,138.06,30.87,24.66,36.42,0.04,-272.75,-272.75,-47,564,-929,25.2,2.2,-26.4,25.2,2.3,-26.1,5.73,2.35,-26.0,30.0
2012-11-16 01:10:00,0.0,1.9062,0.0011,399.93,0.18,100.3,32.8,138.06,30.87,24.65,36.42,0.04,-272.75,-272.75,-47,564,-929,25.3,2.2,-26.3,25.2,2.3,-26.0,5.73,2.29,-26.0,30.1
2012-11-16 01:11:00,0.0,1.9062,0.0008,399.89,0.17,94.6,25.9,138.06,30.87,24.65,36.42,0.04,-272.75,-272.75,-47,564,-929,25.2,2.2,-26.3,25.2,2.3,-26.1,5.73,2.40,-26.0,30.0
2012-11-16 01:12:00,0.0,1.9059,0.0009,399.90,0.20,89.9,31.0,138.06,30.86,24.66,36.42,0.04,-272.75,-272.75,-47,564,-929,25.2,2.2,-26.4,25.2,2.3,-26.1,5.73,2.37,-26.0,30.1
2012-11-16 01:13:00,0.0,1.9060,0.0009,399.89,0.24,95.9,31.1,138.06,30.86,24.66,36.42,0.04,-272.75,-272.75,-47,564,-929,25.3,2.2,-26.3,25.2,2.3,-26.1,5.73,2.28,-26.0,30.1
2012-11-16 01:14:00,0.0,1.9063,0.0008,399.89,0.23,87.2,28.5,138.06,30.86,24.65,36.42,0.04,-272.75,-272.75,-47,564,-928,25.3,2.2,-26.3,25.2,2.3,-26.1,5.73,2.38,-26.0,30.1
2012-11-16 01:15:00,0.0,1.9065,0.0009,399.95,0.20,89.4,32.8,138.06,30.85,24.65,36.42,0.04,-272.75,-272.75,-47,564,-929,25.2,2.2,-26.3,25.2,2.3,-26.1,5.73,2.40,-26.0,30.0
2012-11-16 01:16:00,0.0,1.9060,0.0009,399.83,0.20,94.8,30.8,138.06,30.85,24.65,36.43,0.04,-272.75,-272.75,-47,564,-929,25.2,2.2,-26.5,25.2,2.3,-26.1,5.73,2.30,-26.1,30.0
2012-11-16 01:17:00,0.0,1.9061,0.0010,399.87,0.18,94.1,32.1,138.06,30.85,24.66,36.42,0.04,-272.75,-272.75,-47,564,-928,25.2,2.2,-26.5,25.2,2.2,-26.2,5.73,2.34,-26.1,30.1
2012-11-16 01:18:00,0.0,1.9061,0.0008,399.90,0.17,91.4,33.1,138.06,30.84,24.65,36.42,0.04,-272.75,-272.75,-47,564,-929,25.2,2.2,-26.5,25.2,2.2,-26.2,5.73,2.42,-26.1,30.0
2012-11-16 01:19:00,0.0,1.9061,0.0011,399.89,0.17,90.8,33.6,138.06,30.84,24.65,36.42,0.04,-272.75,-272.75,-47,563,-929,25.2,2.2,-26.6,25.2,2.2,-26.2,5.73,2.32,-26.1,30.0
2012-11-16 01:20:00,0.0,1.9057,0.0009,399.68,0.18,88.2,29.1,138.06,30.84,24.65,36.43,0.04,-272.75,-272.75,-47,563,-929,25.2,2.2,-26.5,25.2,2.2,-26.3,5.73,2.31,-26.1,30.0
2012-11-16 01:21:00,0.0,1.9055,0.0011,399.71,0.19,98.5,35.6,138.06,30.83,24.65,36.43,0.04,-272.75,-272.75,-47,563,-928,25.2,2.2,-26.5,25.2,2.2,-26.2,5.73,2.41,-26.1,30.0
2012-11-16 01:22:00,0.0,1.9049,0.0007,399.76,0.17,91.1,27.2,138.06,30.83,24.66,36.42,0.04,-272.75,-272.75,-47,564,-929,25.2,2.2,-26.5,25.2,2.2,-26.3,5.73,2.36,-26.1,30.0
2012-11-16 01:23:00,0.0,1.9053,0.0008,399.77,0.22,91.4,30.0,138.06,30.83,24.65,36.42,0.04,-272.75,-272.75,-47,563,-929,25.2,2.2,-26.6,25.2,2.2,-26.2,5.73,2.29,-26.1,30.0
2012-11-16 01:24:00,0.0,1.9056,0.0009,399.83,0.21,88.1,30.8,138.06,30.83,24.65,36.42,0.04,-272.75,-272.75,-47,563,-928,25.2,2.2,-26.5,25.1,2.2,-26.3,5.73,2.37,-26.1,30.0
2012-11-16 01:25:00,0.0,1.9050,0.0008,399.82,0.23,91.0,31.0,138.06,30.82,24.65,36.41,0.04,-272.75,-272.75,-47,563,-928,25.2,2.2,-26.5,25.2,2.2,-26.3,5.73,2.40,-26.1,30.0
2012-11-16 01:26:00,0.0,1.9052,0.0009,399.82,0.21,87.1,33.1,138.06,30.82,24.65,36.42,0.04,-272.75,-272.75,-47,563,-929,25.2,2.2,-26.5,25.2,2.2,-26.2,5.73,2.30,-26.1,30.0
2012-11-16 01:27:00,0.0,1.9051,0.0010,399.88,0.22,87.9,29.9,138.06,30.82,24.66,36.41,0.04,-272.75,-272.75,-47,563,-929,25.2,2.2,-26.5,25.2,2.2,-26.4,5.73,2.33,-26.1,30.0
2012-11-16 01:28:00,0.0,1.9051,0.0010,399.81,0.21,93.5,33.3,138.06,30.81,24.65,36.42,0.04,-272.75,-272.75,-47,563,-928,25.2,2.2,-26.6,25.2,2.2,-26.4,5.73,2.41,-26.1,30.0
2012-11-16 01:29:00,0.0,1.9054,0.0008,399.83,0.21,87.7,26.2,138.06,30.81,24.65,36.42,0.04,-272.75,-272.75,-47,563,-929,25.2,2.2,-26.6,25.2,2.2,-26.4,5.73,2.33,-26.1,30.0
2012-11-16 01:30:00,0.0,1.9054,0.0009,399.89,0.22,91.6,29.2,138.06,30.81,24.65,36.41,0.04,-272.75,-272.75,-47,563,-929,25.2,2.2,-26.6,25.2,2.2,-26.4,5.73,2.30,-26.1,30.0
2012-11-16 01:31:00,0.0,1.9055,0.0008,399.83,0.24,91.4,27.7,138.06,30.81,24.65,36.42,0.04,-272.75,-272.75,-47,563,-928,25.2,2.2,-26.7,25.2,2.2,-26.4,5.73,2.39,-26.1,30.0
2012-11-16 01:32:00,0.0,1.9058,0.0009,399.71,0.22,96.7,31.2,138.06,30.81,24.65,36.43,0.04,-272.75,-272.75,-47,563,-928,25.2,2.2,-26.7,25.2,2.2,-26.4,5.73,2.39,-26.1,30.0
2012-11-16 01:33:00,0.0,1.9061,0.0009,399.89,0.23,84.2,28.4,138.06,30.80,24.65,36.42,0.04,-272.75,-272.75,-47,563,-929,25.2,2.2,-26.6,25.1,2.2,-26.4,5.73,2.29,-26.1,30.0
2012-11-16 01:34:00,0.0,1.9060,0.0007,399.89,0.23,88.4,31.2,138.06,30.80,24.65,36.42,0.04,-272.75,-272.75,-47,563,-928,25.2,2.1,-26.7,25.2,2.2,-26.4,5.73,2.35,-26.1,30.0
2012-11-16 01:35:00,0.0,1.9063,0.0011,399.85,0.20,86.7,26.9,138.06,30.80,24.65,36.42,0.04,-272.75,-272.75,-46,563,-928,25.2,2.2,-26.7,25.1,2.2,-26.4,5.73,2.42,-26.1,30.0
2012-11-16 01:36:00,0.0,1.9063,0.0009,399.99,0.22,87.1,34.5,138.06,30.79,24.65,36.41,0.04,-272.75,-272.75,-47,563,-929,25.2,2.2,-26.7,25.1,2.2,-26.4,5.73,2.32,-26.2,30.0
2012-11-16 01:37:00,0.0,1.9062,0.0011,399.98,0.22,85.5,29.8,138.06,30.79,24.65,36.41,0.04,-272.75,-272.75,-47,563,-928,25.2,2.2,-26.7,25.1,2.2,-26.4,5.73,2.31,-26.1,30.0
2012-11-16 01:38:00,0.0,1.9060,0.0010,399.98,0.21,86.0,26.9,138.06,30.79,24.66,36.42,0.04,-272.75,-272.75,-47,563,-928,25.1,2.2,-26.6,25.1,2.2,-26.4,5.73,2.40,-26.2,30.0
2012-11-16 01:39:00,0.0,1.9060,0.0010,400.02,0.23,86.7,35.7,138.06,30.79,24.66,36.42,0.04,-272.75,-272.75,-47,563,-929,25.1,2.2,-26.7,25.1,2.2,-26.4,5.73,2.37,-26.2,30.0
2012-11-16 01:40:00,0.0,1.9063,0.0009,400.04,0.17,87.0,29.8,138.06,30.78,24.66,36.42,0.04,-272.75,-272.75,-47,563,-928,25.1,2.2,-26.7,25.1,2.2,-26.4,5.73,2.29,-26.2,30.0
2012-11-16 01:41:00,0.0,1.9065,0.0010,400.15,0.21,88.7,31.0,138.06,30.78,24.65,36.41,0.04,-272.75,-272.75,-47,563,-928,25.1,2.2,-26.7,25.1,2.2,-26.4,5.73,2.37,-26.2,30.0
2012-11-16 01:42:00,0.0,1.9064,0.0010,400.11,0.19,92.7,28.7,138.06,30.78,24.65,36.41,0.04,-272.75,-272.75,-47,563,-929,25.1,2.2,-26.7,25.1,2.2,-26.4,5.73,2.40,-26.2,29.9
2012-11-16 01:43:00,0.0,1.9068,0.0009,399.98,0.20,88.3,35.1,138.06,30.77,24.65,36.42,0.04,-272.75,-272.75,-47,563,-928,25.1,2.2,-26.7,25.1,2.2,-26.4,5.73,2.30,-26.2,30.0
2012-11-16 01:44:00,0.0,1.9068,0.0010,400.04,0.20,84.8,32.8,138.06,30.77,24.65,36.42,0.04,-272.75,-272.75,-47,563,-928,25.1,2.2,-26.7,25.1,2.2,-26.4,5.73,2.33,-26.2,29.9
2012-11-16 01:45:00,0.0,1.9069,0.0010,399.98,0.22,84.3,32.4,138.06,30.77,24.65,36.42,0.04,-272.75,-272.75,-47,563,-928,25.1,2.2,-26.6,25.1,2.2,-26.4,5.73,2.41,-26.2,30.0
2012-11-16 01:46:00,0.0,1.9071,0.0012,400.05,0.20,86.4,30.3,138.06,30.76,24.65,36.42,0.04,-272.75,-272.75,-47,563,-928,25.1,2.2,-26.7,25.1,2.2,-26.4,5.73,2.34,-26.2,30.0
2012-11-16 01:47:00,0.0,1.9067,0.0010,400.06,0.25,87.9,31.3,138.06,30.76,24.65,36.41,0.04,-272.74,-272.75,-47,563,-928,25.1,2.2,-26.7,25.1,2.2,-26.4,5.73,2.29,-26.2,29.9
2012-11-16 01:48:00,0.0,1.9068,0.0008,400.14,0.23,79.9,26.1,138.06,30.76,24.66,36.41,0.04,-272.75,-272.75,-46,563,-928,25.1,2.1,-26.8,25.1,2.2,-26.5,5.73,2.38,-26.2,30.0
2012-11-16 01:49:00,0.0,1.9069,0.0009,400.08,0.23,87.9,32.8,138.06,30.75,24.66,36.42,0.04,-272.75,-272.75,-47,563,-929,25.1,2.2,-26.7,25.1,2.2,-26.4,5.73,2.39,-26.2,29.9
2012-11-16 01:50:00,0.0,1.9071,0.0009,400.12,0.19,87.9,36.3,138.06,30.75,24.66,36.41,0.04,-272.74,-272.75,-47,563,-928,25.1,2.2,-26.7,25.1,2.2,-26.5,5.73,2.30,-26.2,29.9
2012-11-16 01:51:00,0.0,1.9074,0.0009,400.04,0.23,85.9,33.0,138.06,30.75,24.65,36.42,0.04,-272.75,-272.75,-47,563,-928,25.1,2.2,-26.7,25.1,2.2,-26.5,5.73,2.34,-26.2,29.9
2012-11-16 01:52:00,0.0,1.9070,0.0011,400.08,0.19,75.1,29.0,138.06,30.75,24.65,36.42,0.04,-272.75,-272.75,-46,563,-929,25.1,2.2,-26.6,25.1,2.2,-26.4,5.73,2.41,-26.2,29.9
2012-11-16 01:53:00,0.0,1.9067,0.0010,400.09,0.18,87.0,34.5,138.06,30.74,24.66,36.42,0.04,-272.75,-272.75,-47,563,-928,25.1,2.2,-26.6,25.1,2.2,-26.3,5.73,2.33,-26.2,29.9
2012-11-16 01:54:00,0.0,1.9073,0.0010,399.97,0.23,86.8,30.0,138.06,30.74,24.65,36.43,0.04,-272.75,-272.75,-47,563,-928,25.1,2.2,-26.6,25.1,2.2,-26.3,5.73,2.30,-26.2,29.9
2012-11-16 01:55:00,0.0,1.9067,0.0009,400.10,0.25,93.4,34.7,138.06,30.74,24.65,36.41,0.04,-272.75,-272.75,-47,563,-928,25.1,2.2,-26.7,25.1,2.2,-26.4,5.73,2.41,-26.2,29.9
2012-11-16 01:56:00,0.0,1.9067,0.0010,400.15,0.21,84.8,25.7,138.06,30.73,24.65,36.41,0.04,-272.75,-272.75,-46,563,-928,25.1,2.1,-26.8,25.1,2.2,-26.4,5.73,2.37,-26.2,29.9
2012-11-16 01:57:00,0.0,1.9069,0.0009,400.11,0.21,89.8,34.0,138.06,30.73,24.66,36.42,0.04,-272.75,-272.75,-46,563,-928,25.1,2.2,-26.7,25.1,2.2,-26.4,5.73,2.29,-26.2,29.9
2012-11-16 01:58:00,0.0,1.9069,0.0009,400.23,0.17,92.2,29.8,138.06,30.73,24.66,36.41,0.04,-272.75,-272.75,-47,563,-928,25.1,2.2,-26.7,25.1,2.2,-26.5,5.73,2.37,-26.2,29.9
2012-11-16 01:59:00,0.0,1.9070,0.0010,400.10,0.18,88.7,32.1,138.06,30.73,24.65,36.42,0.04,-272.75,-272.75,-47,563,-928,25.1,2.1,-26.8,25.1,2.2,-26.5,5.73,2.40,-26.2,29.9
2012-11-16 02:00:00,0.0,1.9078,0.0010,400.11,0.18,74.6,27.4,138.06,30.72,24.65,36.42,0.04,-272.75,-272.75,-46,563,-928,25.1,2.1,-26.9,25.1,2.2,-26.5,5.73,2.30,-26.2,29.9
2012-11-16 02:01:00,0.0,1.9075,0.0009,400.17,0.19,85.6,27.0,138.06,30.72,24.65,36.42,0.04,-272.75,-272.75,-46,563,-928,25.1,2.1,-26.9,25.1,2.2,-26.6,5.73,2.33,-26.2,29.9
2012-11-16 02:02:00,0.0,1.9076,0.0009,400.27,0.18,86.9,33.9,138.06,30.72,24.65,36.41,0.04,-272.75,-272.75,-47,563,-928,25.1,2.1,-26.9,25.1,2.2,-26.6,5.73,2.41,-26.2,29.9
2012-11-16 02:03:00,0.0,1.9077,0.0009,400.27,0.23,88.5,26.5,138.06,30.72,24.65,36.41,0.04,-272.75,-272.75,-47,563,-928,25.1,2.1,-26.9,25.1,2.2,-26.5,5.73,2.34,-26.3,29.9
2012-11-16 02:04:00,0.0,1.9078,0.0007,400.25,0.20,79.9,33.1,138.06,30.72,24.65,36.41,0.04,-272.75,-272.75,-46,563,-928,25.1,2.1,-26.8,25.1,2.2,-26.6,5.73,2.30,-26.2,29.9
2012-11-16 02:05:00,0.0,1.9074,0.0009,400.29,0.20,84.6,24.0,138.06,30.72,24.66,36.42,0.04,-272.75,-272.75,-46,563,-928,25.1,2.1,-26.9,25.1,2.2,-26.6,5.73,2.40,-26.3,29.9
2012-11-16 02:06:00,0.0,1.9077,0.0011,400.22,0.21,84.0,32.5,138.06,30.71,24.65,36.42,0.04,-272.75,-272.75,-47,563,-928,25.1,2.1,-26.9,25.1,2.2,-26.6,5.73,2.38,-26.3,29.9
2012-11-16 02:07:00,0.0,1.9074,0.0008,400.30,0.22,79.0,31.5,138.06,30.71,24.66,36.41,0.04,-272.75,-272.75,-47,563,-928,25.1,2.1,-26.8,25.1,2.2,-26.6,5.73,2.30,-26.3,29.9
2012-11-16 02:08:00,0.0,1.9081,0.0008,400.17,0.22,88.3,31.3,138.06,30.71,24.65,36.42,0.04,-272.75,-272.75,-46,563,-928,25.1,2.1,-26.9,25.1,2.2,-26.6,5.73,2.35,-26.3,29.8
2012-11-16 02:09:00,0.0,1.9084,0.0008,400.35,0.19,81.0,30.2,138.06,30.71,24.65,36.41,0.04,-272.75,-272.75,-46,563,-928,25.1,2.1,-26.8,25.0,2.2,-26.6,5.73,2.41,-26.3,29.9
2012-11-16 02:10:00,0.0,1.9081,0.0008,400.32,0.17,81.8,28.6,138.06,30.70,24.66,36.41,0.04,-272.75,-272.75,-47,563,-928,25.1,2.1,-26.8,25.1,2.2,-26.6,5.73,2.32,-26.3,29.9
2012-11-16 02:11:00,0.0,1.9084,0.0009,400.35,0.21,85.6,33.8,138.06,30.70,24.66,36.42,0.04,-272.75,-272.75,-47,563,-928,25.0,2.1,-26.8,25.0,2.2,-26.6,5.73,2.32,-26.3,29.8
2012-11-16 02:12:00,0.0,1.9088,0.0009,400.35,0.22,78.3,34.8,138.06,30.70,24.65,36.42,0.04,-272.75,-272.75,-46,563,-928,25.1,2.1,-26.9,25.0,2.2,-26.6,5.73,2.41,-26.3,29.8
2012-11-16 02:13:00,0.0,1.9087,0.0008,400.38,0.19,78.9,32.6,138.06,30.69,24.66,36.42,0.04,-272.75,-272.75,-46,563,-928,25.0,2.1,-26.8,25.0,2.2,-26.6,5.73,2.36,-26.3,29.8
2012-11-16 02:14:00,0.0,1.9092,0.0009,400.37,0.18,82.9,29.0,138.06,30.69,24.65,36.42,0.04,-272.75,-272.75,-46,563,-928,25.1,2.1,-26.9,25.0,2.2,-26.6,5.73,2.29,-26.3,29.9
2012-11-16 02:15:00,0.0,1.9096,0.0010,400.35,0.19,81.0,24.6,138.06,30.68,24.65,36.42,0.04,-272.75,-272.75,-47,563,-928,25.0,2.1,-26.9,25.0,2.2,-26.6,5.73,2.38,-26.3,29.8
2012-11-16 02:16:00,0.0,1.9092,0.0009,400.42,0.21,81.1,30.7,138.06,30.68,24.65,36.41,0.04,-272.75,-272.75,-47,563,-928,25.0,2.1,-26.9,25.0,2.2,-26.6,5.73,2.40,-26.3,29.8
2012-11-16 02:17:00,0.0,1.9091,0.0008,400.40,0.18,78.7,31.5,138.06,30.67,24.66,36.42,0.04,-272.75,-272.75,-46,563,-928,25.0,2.1,-26.8,25.0,2.2,-26.6,5.73,2.30,-26.3,29.8